User: anonymous   Login
Location: Hepcat Sky Observatory
(29.9800°N, 95.6500°W)
Time: 16:44:15
(UTC-05:00)
Language:

Cosmos 1602 Rocket - Orbit

View from above orbital plane
View from above orbital plane
View from above satellite
View from above satellite

Ground track
Ground track

The orbit data is extracted from the following two-line orbital elements,

1 15332U 84105B   17112.91728919 +.00000160 +00000-0 +16557-4 0  9995
2 15332 082.5356 239.7246 0020960 188.5130 311.2344 14.83300946737307
Epoch (UTC): 22 April 2017 22:00:53
Eccentricity: 0.0020960
inclination: 82.5356°
perigee height: 604 km
apogee height: 633 km
right ascension of ascending node: 239.7246°
argument of perigee: 188.5130°
revolutions per day: 14.83300946
mean anomaly at epoch: 311.2344°
orbit number at epoch: 73730

The dashed part of the orbit path shows where the satellite is in the earth's shadow,  

DLR